sat.trackr.live / text

‹ back to catalog

STARLINK-35217

NORAD 65627 · 2025-210F

PAYLOAD ACTIVE UNKNOWN

§ Identity

Operator
Country
US
Launch date
2025-09-18
Launch site
AFETR
Launch vehicle
Mass (kg)
RCS (m²)

Purposes: comms

External: N2YO · Heavens-Above · Gunter

§ Orbital elements

Epoch: 2026-05-24T21:19:26.158080Z

Period
94.10 min
Inclination
53.1597°
Eccentricity
0.0000981
Mean motion
15.30210486 rev/d
Perigee alt
474.5 km
Apogee alt
475.9 km
Semi-major
6,853.3 km
B*
5.0283e-4
RAAN
313.4135°
Arg perigee
82.5872°
Mean anomaly
277.5240°
Rev number
3,939

§ Raw data

STARLINK-352171 65627U 25210F   26144.88849720  .00014567  00000+0  50283-3 0  99922 65627  53.1597 313.4135 0000981  82.5872 277.5240 15.30210486 39399

JSON: /api/v1/satellites/65627 · /tle

For live sub-satellite position, see the globe view (requires WebGL).

§ Visibility from observer

Set your observer location to see the next 7 days of passes ≥ 10°. The values pass through the URL so the page stays shareable.

No JS? Fill the form by hand. The geolocation button needs JavaScript.